AUL101 ULAA-UUBI

Flight info

Callsign AUL101
Flight time 1h 18m
Altitude 36000
Route ABEL3K ABELU T825 UREPI T875 LUZIK T 786 GOBOM T 747 OLATU OLAT1D
Aircraft A320/M-SDE3FGHIRWY/LB1

Departure

Time 2026-04-24 08:46
Airport Talagi Airport (ULAA)

Arrival

Time 2026-04-24 10:04
Airport Ivanovo South Airport (UUBI)
Time Latitude Longitude Altitude Speed Heading
2026-04-24 08:08 64.59676 40.71152 71 ft 0 kts 186°
2026-04-24 08:37 64.59678 40.71152 71 ft 1 kts 187°
2026-04-24 08:37 64.59687 40.71155 71 ft 1 kts 186°
2026-04-24 08:37 64.59701 40.71154 70 ft 2 kts 163°
2026-04-24 08:38 64.59716 40.71139 71 ft 2 kts 144°
2026-04-24 08:38 64.59727 40.71115 70 ft 2 kts 124°
2026-04-24 08:38 64.59733 40.71083 71 ft 2 kts 104°
2026-04-24 08:38 64.59734 40.71066 71 ft 1 kts 94°
2026-04-24 08:39 64.59734 40.71059 71 ft 0 kts 96°
2026-04-24 08:40 64.59734 40.71062 70 ft 1 kts 96°
2026-04-24 08:40 64.59731 40.71143 70 ft 9 kts 96°
2026-04-24 08:40 64.59775 40.71260 70 ft 12 kts
2026-04-24 08:41 64.59826 40.71378 70 ft 12 kts 104°
2026-04-24 08:41 64.59818 40.71586 70 ft 13 kts 94°
2026-04-24 08:41 64.59808 40.71801 70 ft 13 kts 96°
2026-04-24 08:41 64.59795 40.72069 70 ft 20 kts 96°
2026-04-24 08:42 64.59777 40.72424 70 ft 23 kts 97°
2026-04-24 08:42 64.59758 40.72831 71 ft 26 kts 97°
2026-04-24 08:42 64.59737 40.73275 70 ft 28 kts 99°
2026-04-24 08:42 64.59705 40.73706 70 ft 24 kts 111°
2026-04-24 08:43 64.59687 40.74034 70 ft 15 kts 95°
2026-04-24 08:43 64.59736 40.74172 70 ft 11 kts
2026-04-24 08:43 64.59783 40.74188 70 ft 0 kts
2026-04-24 08:44 64.59784 40.74188 70 ft 0 kts
2026-04-24 08:44 64.59792 40.74189 70 ft 1 kts
2026-04-24 08:44 64.59811 40.74194 70 ft 4 kts
2026-04-24 08:44 64.59855 40.74205 70 ft 8 kts
2026-04-24 08:45 64.59902 40.74146 70 ft 9 kts 281°
2026-04-24 08:45 64.59911 40.73993 70 ft 10 kts 277°
2026-04-24 08:45 64.59930 40.73643 71 ft 50 kts 277°
2026-04-24 08:45 64.59994 40.72307 71 ft 114 kts 277°
2026-04-24 08:46 64.60110 40.70006 81 ft 165 kts 278°
2026-04-24 08:46 64.60239 40.67532 857 ft 147 kts 277°
2026-04-24 08:46 64.60335 40.65140 1299 ft 157 kts 275°
2026-04-24 08:46 64.60430 40.62468 1700 ft 174 kts 277°
2026-04-24 08:47 64.60572 40.59558 2139 ft 187 kts 278°
2026-04-24 08:47 64.60734 40.56423 2466 ft 206 kts 278°
2026-04-24 08:47 64.60911 40.52972 2810 ft 226 kts 278°
2026-04-24 08:47 64.61103 40.49192 3241 ft 244 kts 278°
2026-04-24 08:48 64.61047 40.45155 3763 ft 259 kts 253°
2026-04-24 08:48 64.60107 40.41623 4545 ft 263 kts 223°
2026-04-24 08:48 64.58514 40.39675 5345 ft 267 kts 193°
2026-04-24 08:48 64.56679 40.39110 6150 ft 270 kts 187°
2026-04-24 08:49 64.54788 40.38686 6914 ft 274 kts 187°
2026-04-24 08:49 64.52904 40.38258 7656 ft 278 kts 187°
2026-04-24 08:49 64.50981 40.37801 8408 ft 282 kts 188°
2026-04-24 08:49 64.49051 40.37328 9191 ft 284 kts 188°
2026-04-24 08:50 64.47075 40.36832 9942 ft 287 kts 188°
2026-04-24 08:50 64.45047 40.36314 10372 ft 302 kts 188°
2026-04-24 08:50 64.42899 40.35762 10698 ft 320 kts 188°
2026-04-24 08:50 64.40659 40.35188 11004 ft 337 kts 188°
2026-04-24 08:51 64.38267 40.34571 11424 ft 350 kts 187°
2026-04-24 08:51 64.35859 40.33944 12096 ft 353 kts 187°
2026-04-24 08:51 64.33397 40.33308 12798 ft 356 kts 187°
2026-04-24 08:51 64.30958 40.32681 13436 ft 360 kts 187°
2026-04-24 08:52 64.28469 40.32043 14066 ft 364 kts 187°
2026-04-24 08:52 64.25959 40.31403 14684 ft 367 kts 187°
2026-04-24 08:52 64.23401 40.30752 15294 ft 371 kts 187°
2026-04-24 08:52 64.20831 40.30099 15885 ft 375 kts 187°
2026-04-24 08:53 64.18246 40.29444 16462 ft 379 kts 187°
2026-04-24 08:53 64.15614 40.28777 17034 ft 382 kts 188°
2026-04-24 08:53 64.12965 40.28109 17587 ft 386 kts 188°
2026-04-24 08:53 64.10329 40.27445 18120 ft 389 kts 188°
2026-04-24 08:54 64.07610 40.26761 18654 ft 393 kts 188°
2026-04-24 08:54 64.04903 40.26082 19166 ft 396 kts 188°
2026-04-24 08:54 64.02175 40.25399 19666 ft 400 kts 188°
2026-04-24 08:54 63.99403 40.24706 20163 ft 403 kts 188°
2026-04-24 08:55 63.96623 40.24012 20647 ft 406 kts 188°
2026-04-24 08:55 63.93800 40.23309 21119 ft 410 kts 188°
2026-04-24 08:55 63.90962 40.22596 21581 ft 413 kts 188°
2026-04-24 08:55 63.88084 40.21878 22043 ft 416 kts 188°
2026-04-24 08:56 63.85209 40.21169 22487 ft 419 kts 188°
2026-04-24 08:56 63.82304 40.20453 22911 ft 422 kts 188°
2026-04-24 08:56 63.79394 40.19735 23321 ft 425 kts 188°
2026-04-24 08:56 63.76448 40.18962 23718 ft 428 kts 190°
2026-04-24 08:57 63.73546 40.17804 24105 ft 430 kts 194°
2026-04-24 08:57 63.70639 40.16132 24491 ft 431 kts 199°
2026-04-24 08:57 63.68737 40.14750 24742 ft 432 kts 201°
2026-04-24 08:57 63.64946 40.11824 25217 ft 436 kts 201°
2026-04-24 08:58 63.62084 40.09621 25557 ft 439 kts 201°
2026-04-24 08:58 63.59189 40.07404 25912 ft 441 kts 201°
2026-04-24 08:58 63.56309 40.05210 26248 ft 443 kts 201°
2026-04-24 08:58 63.53387 40.02991 26552 ft 446 kts 201°
2026-04-24 08:59 63.50422 40.00743 26850 ft 449 kts 201°
2026-04-24 08:59 63.48443 39.99244 27056 ft 451 kts 201°
2026-04-24 08:59 63.44501 39.96205 27450 ft 453 kts 203°
2026-04-24 08:59 63.41581 39.93648 27734 ft 455 kts 204°
2026-04-24 09:00 63.38631 39.91065 28014 ft 457 kts 204°
2026-04-24 09:00 63.35693 39.88519 28273 ft 460 kts 204°
2026-04-24 09:00 63.32695 39.85936 28579 ft 460 kts 204°
2026-04-24 09:00 63.29740 39.83391 28944 ft 459 kts 204°
2026-04-24 09:01 63.26765 39.80830 29316 ft 458 kts 204°
2026-04-24 09:01 63.23811 39.78292 29661 ft 458 kts 204°
2026-04-24 09:01 63.20870 39.75767 30003 ft 458 kts 204°
2026-04-24 09:01 63.17888 39.73208 30360 ft 457 kts 204°
2026-04-24 09:02 63.14967 39.70709 30695 ft 456 kts 204°
2026-04-24 09:02 63.12011 39.68188 31016 ft 456 kts 204°
2026-04-24 09:02 63.09059 39.65673 31331 ft 456 kts 204°
2026-04-24 09:02 63.06120 39.63176 31648 ft 455 kts 204°
2026-04-24 09:03 63.03153 39.60661 31971 ft 454 kts 204°
2026-04-24 09:03 63.00235 39.58190 32262 ft 454 kts 204°
2026-04-24 09:03 62.97271 39.55685 32556 ft 454 kts 204°
2026-04-24 09:03 62.94344 39.53221 32842 ft 453 kts 204°
2026-04-24 09:04 62.91422 39.50767 33119 ft 453 kts 204°
2026-04-24 09:04 62.88496 39.48315 33378 ft 452 kts 204°
2026-04-24 09:04 62.85560 39.45873 33623 ft 452 kts 204°
2026-04-24 09:04 62.82631 39.43441 33853 ft 452 kts 204°
2026-04-24 09:05 62.79693 39.40998 34043 ft 453 kts 204°
2026-04-24 09:05 62.76783 39.38585 34226 ft 453 kts 204°
2026-04-24 09:05 62.73822 39.36127 34394 ft 454 kts 204°
2026-04-24 09:05 62.70905 39.33712 34575 ft 455 kts 203°
2026-04-24 09:06 62.67945 39.31255 34740 ft 456 kts 203°
2026-04-24 09:06 62.64974 39.28789 34905 ft 456 kts 204°
2026-04-24 09:06 62.61993 39.26326 35053 ft 457 kts 204°
2026-04-24 09:06 62.59027 39.23882 35191 ft 458 kts 204°
2026-04-24 09:07 62.56062 39.21452 35325 ft 459 kts 204°
2026-04-24 09:07 62.53087 39.19018 35467 ft 459 kts 203°
2026-04-24 09:07 62.47110 39.14146 35592 ft 460 kts 203°
2026-04-24 09:08 62.41145 39.09306 35605 ft 460 kts 203°
2026-04-24 09:08 62.35198 39.04504 35611 ft 460 kts 204°
2026-04-24 09:09 62.29203 38.99681 35612 ft 460 kts 203°
2026-04-24 09:09 62.23249 38.94910 35611 ft 459 kts 204°
2026-04-24 09:10 62.17264 38.90138 35611 ft 459 kts 204°
2026-04-24 09:10 62.11332 38.85423 35610 ft 459 kts 204°
2026-04-24 09:11 62.05336 38.80683 35610 ft 459 kts 203°
2026-04-24 09:11 61.99384 38.75996 35611 ft 459 kts 203°
2026-04-24 09:12 61.93394 38.71449 35611 ft 459 kts 200°
2026-04-24 09:12 61.87225 38.68105 35609 ft 460 kts 194°
2026-04-24 09:13 61.80967 38.65493 35610 ft 459 kts 194°
2026-04-24 09:13 61.74730 38.62840 35610 ft 459 kts 194°
2026-04-24 09:14 61.68523 38.60215 35609 ft 459 kts 194°
2026-04-24 09:14 61.62246 38.58000 35603 ft 462 kts 186°
2026-04-24 09:15 61.55893 38.59229 35611 ft 461 kts 173°
2026-04-24 09:15 61.49588 38.61723 35611 ft 459 kts 172°
2026-04-24 09:16 61.43301 38.64184 35653 ft 465 kts 172°
2026-04-24 09:16 61.36934 38.66623 35699 ft 470 kts 173°
2026-04-24 09:17 61.30510 38.69057 35845 ft 471 kts 173°
2026-04-24 09:17 61.27312 38.70262 35958 ft 471 kts 173°
2026-04-24 09:17 61.24091 38.71476 36068 ft 470 kts 173°
2026-04-24 09:18 61.20887 38.72678 36187 ft 470 kts 173°
2026-04-24 09:18 61.17715 38.73868 36283 ft 470 kts 173°
2026-04-24 09:18 61.11270 38.76271 36442 ft 470 kts 173°
2026-04-24 09:19 61.04840 38.78659 36558 ft 471 kts 173°
2026-04-24 09:19 60.98427 38.81031 36338 ft 472 kts 173°
2026-04-24 09:20 60.95202 38.82223 36090 ft 472 kts 172°
2026-04-24 09:20 60.91973 38.83410 35836 ft 472 kts 172°
2026-04-24 09:20 60.88781 38.84580 35589 ft 472 kts 173°
2026-04-24 09:20 60.85573 38.85755 35339 ft 472 kts 173°
2026-04-24 09:21 60.82333 38.86937 35089 ft 472 kts 173°
2026-04-24 09:21 60.79094 38.88113 34840 ft 473 kts 173°
2026-04-24 09:21 60.75882 38.89281 34640 ft 472 kts 173°
2026-04-24 09:21 60.72662 38.90451 34617 ft 473 kts 173°
2026-04-24 09:22 60.66188 38.92798 34612 ft 475 kts 173°
2026-04-24 09:22 60.59712 38.95137 34608 ft 474 kts 172°
2026-04-24 09:23 60.53274 38.97449 34608 ft 473 kts 172°
2026-04-24 09:23 60.46797 38.99766 34606 ft 473 kts 172°
2026-04-24 09:24 60.40323 39.02078 34604 ft 473 kts 172°
2026-04-24 09:24 60.33866 39.04372 34590 ft 473 kts 172°
2026-04-24 09:25 60.27380 39.06666 34571 ft 473 kts 172°
2026-04-24 09:25 60.20948 39.08927 34549 ft 473 kts 172°
2026-04-24 09:26 60.14492 39.11196 34536 ft 472 kts 172°
2026-04-24 09:26 60.08037 39.13455 34529 ft 472 kts 172°
2026-04-24 09:27 60.01620 39.15689 34529 ft 472 kts 172°
2026-04-24 09:27 59.95149 39.17935 34529 ft 472 kts 172°
2026-04-24 09:28 59.88720 39.20155 34527 ft 472 kts 172°
2026-04-24 09:28 59.82281 39.22365 34530 ft 472 kts 172°
2026-04-24 09:29 59.75850 39.24563 34528 ft 472 kts 172°
2026-04-24 09:29 59.69390 39.26768 34530 ft 472 kts 172°
2026-04-24 09:30 59.62943 39.28959 34529 ft 472 kts 172°
2026-04-24 09:30 59.56507 39.31138 34528 ft 472 kts 172°
2026-04-24 09:31 59.50061 39.33315 34529 ft 472 kts 172°
2026-04-24 09:31 59.43618 39.35481 34530 ft 472 kts 172°
2026-04-24 09:32 59.37184 39.37633 34529 ft 472 kts 172°
2026-04-24 09:32 59.30731 39.39790 34528 ft 472 kts 172°
2026-04-24 09:33 59.24284 39.41933 34528 ft 471 kts 172°
2026-04-24 09:33 59.17829 39.44071 34525 ft 471 kts 172°
2026-04-24 09:34 59.11397 39.46195 34530 ft 472 kts 172°
2026-04-24 09:34 59.04951 39.48312 34529 ft 471 kts 172°
2026-04-24 09:35 58.98498 39.50424 34526 ft 471 kts 172°
2026-04-24 09:35 58.92096 39.52508 34522 ft 470 kts 171°
2026-04-24 09:36 58.85646 39.54597 34525 ft 470 kts 171°
2026-04-24 09:36 58.79215 39.56681 34530 ft 471 kts 171°
2026-04-24 09:37 58.72796 39.58752 34529 ft 471 kts 171°
2026-04-24 09:37 58.66374 39.60810 34528 ft 471 kts 171°
2026-04-24 09:38 58.59953 39.62868 34529 ft 470 kts 171°
2026-04-24 09:38 58.53505 39.64926 34530 ft 470 kts 171°
2026-04-24 09:39 58.47074 39.66997 34528 ft 471 kts 172°
2026-04-24 09:39 58.40638 39.69048 34130 ft 469 kts 172°
2026-04-24 09:40 58.37434 39.70058 33553 ft 469 kts 172°
2026-04-24 09:40 58.34250 39.71060 32949 ft 469 kts 172°
2026-04-24 09:40 58.31035 39.72168 32341 ft 469 kts 170°
2026-04-24 09:40 58.27874 39.73366 31737 ft 469 kts 169°
2026-04-24 09:41 58.24708 39.74588 31109 ft 469 kts 169°
2026-04-24 09:41 58.21501 39.75820 30464 ft 470 kts 169°
2026-04-24 09:41 58.18338 39.77024 29818 ft 470 kts 169°
2026-04-24 09:41 58.15136 39.78231 29151 ft 470 kts 169°
2026-04-24 09:42 58.11940 39.79429 28479 ft 470 kts 170°
2026-04-24 09:42 58.08731 39.80628 27799 ft 470 kts 169°
2026-04-24 09:42 58.05553 39.81812 27111 ft 471 kts 169°
2026-04-24 09:42 58.02362 39.82996 26402 ft 471 kts 169°
2026-04-24 09:43 57.99170 39.84181 25712 ft 470 kts 169°
2026-04-24 09:43 57.95974 39.85366 25230 ft 464 kts 169°
2026-04-24 09:43 57.92820 39.86534 24662 ft 461 kts 169°
2026-04-24 09:43 57.89705 39.87683 24059 ft 459 kts 169°
2026-04-24 09:44 57.86627 39.88894 23569 ft 453 kts 167°
2026-04-24 09:44 57.83603 39.90323 23170 ft 446 kts 166°
2026-04-24 09:44 57.80624 39.91740 22769 ft 439 kts 166°
2026-04-24 09:44 57.77700 39.93129 22331 ft 434 kts 166°
2026-04-24 09:45 57.74798 39.94506 21875 ft 430 kts 166°
2026-04-24 09:45 57.71898 39.95884 21405 ft 426 kts 166°
2026-04-24 09:45 57.69064 39.97227 20940 ft 423 kts 166°
2026-04-24 09:45 57.66246 39.98560 20473 ft 420 kts 166°
2026-04-24 09:46 57.63432 39.99889 20004 ft 416 kts 166°
2026-04-24 09:46 57.60650 40.01199 19538 ft 413 kts 166°
2026-04-24 09:46 57.57898 40.02491 19072 ft 409 kts 166°
2026-04-24 09:46 57.55128 40.03790 18601 ft 406 kts 166°
2026-04-24 09:47 57.52432 40.05053 18146 ft 403 kts 166°
2026-04-24 09:47 57.49728 40.06318 17684 ft 399 kts 166°
2026-04-24 09:47 57.47055 40.07567 17223 ft 396 kts 166°
2026-04-24 09:47 57.44389 40.08811 16764 ft 393 kts 166°
2026-04-24 09:48 57.41774 40.10030 16312 ft 390 kts 166°
2026-04-24 09:48 57.39152 40.11249 15855 ft 387 kts 166°
2026-04-24 09:48 57.36566 40.12450 15403 ft 384 kts 166°
2026-04-24 09:48 57.33988 40.13666 14949 ft 381 kts 165°
2026-04-24 09:49 57.31450 40.15036 14498 ft 378 kts 163°
2026-04-24 09:49 57.28971 40.16394 14054 ft 376 kts 163°
2026-04-24 09:49 57.26471 40.17763 13606 ft 373 kts 163°
2026-04-24 09:49 57.24021 40.19103 13166 ft 370 kts 163°
2026-04-24 09:50 57.21574 40.20439 12724 ft 367 kts 163°
2026-04-24 09:50 57.19138 40.21767 12282 ft 364 kts 163°
2026-04-24 09:50 57.16704 40.23093 11840 ft 361 kts 163°
2026-04-24 09:50 57.14335 40.24381 11402 ft 359 kts 163°
2026-04-24 09:51 57.11946 40.25678 10953 ft 357 kts 163°
2026-04-24 09:51 57.09571 40.26965 10501 ft 355 kts 163°
2026-04-24 09:51 57.07220 40.28238 10055 ft 353 kts 163°
2026-04-24 09:51 57.04874 40.29505 9693 ft 349 kts 163°
2026-04-24 09:52 57.02615 40.30734 9568 ft 337 kts 162°
2026-04-24 09:52 57.00598 40.32684 9457 ft 322 kts 136°
2026-04-24 09:52 56.99311 40.35878 9396 ft 303 kts 110°
2026-04-24 09:52 56.98780 40.39511 9376 ft 292 kts 97°
2026-04-24 09:53 56.98452 40.43175 9304 ft 293 kts 95°
2026-04-24 09:53 56.98138 40.46832 9053 ft 292 kts 96°
2026-04-24 09:53 56.97806 40.50516 8769 ft 291 kts 96°
2026-04-24 09:53 56.97463 40.54144 8473 ft 290 kts 96°
2026-04-24 09:54 56.97109 40.57769 8171 ft 288 kts 96°
2026-04-24 09:54 56.96748 40.61388 7866 ft 287 kts 96°
2026-04-24 09:54 56.96387 40.64971 7563 ft 285 kts 96°
2026-04-24 09:54 56.96027 40.68531 7259 ft 284 kts 97°
2026-04-24 09:55 56.95668 40.72065 6959 ft 282 kts 97°
2026-04-24 09:55 56.95312 40.75540 6664 ft 281 kts 97°
2026-04-24 09:55 56.94950 40.79071 6365 ft 279 kts 97°
2026-04-24 09:55 56.94590 40.82564 6068 ft 277 kts 97°
2026-04-24 09:56 56.94233 40.86022 5773 ft 276 kts 97°
2026-04-24 09:56 56.93879 40.89442 5481 ft 275 kts 97°
2026-04-24 09:56 56.93521 40.92874 5187 ft 274 kts 99°
2026-04-24 09:56 56.92763 40.96085 4853 ft 279 kts 128°
2026-04-24 09:57 56.91228 40.98152 4570 ft 278 kts 157°
2026-04-24 09:57 56.89413 40.99368 4288 ft 276 kts 162°
2026-04-24 09:57 56.87602 41.00447 4006 ft 274 kts 162°
2026-04-24 09:57 56.85811 41.01545 3729 ft 272 kts 161°
2026-04-24 09:58 56.84021 41.02692 3453 ft 270 kts 160°
2026-04-24 09:58 56.82314 41.04058 3157 ft 267 kts 141°
2026-04-24 09:58 56.81206 41.06528 3119 ft 245 kts 109°
2026-04-24 09:58 56.80882 41.09410 3090 ft 222 kts 81°
2026-04-24 09:59 56.81204 41.12009 3055 ft 201 kts 58°
2026-04-24 09:59 56.81946 41.13971 3064 ft 179 kts 39°
2026-04-24 09:59 56.82898 41.15245 2899 ft 161 kts 21°
2026-04-24 09:59 56.83872 41.15855 2773 ft 140 kts
2026-04-24 10:00 56.84817 41.15958 2674 ft 136 kts 353°
2026-04-24 10:00 56.85746 41.15619 2544 ft 137 kts 341°
2026-04-24 10:00 56.86603 41.14851 2289 ft 136 kts 328°
2026-04-24 10:00 56.87315 41.13725 2105 ft 136 kts 316°
2026-04-24 10:01 56.87918 41.12387 1981 ft 136 kts 308°
2026-04-24 10:01 56.88409 41.10918 1977 ft 135 kts 305°
2026-04-24 10:01 56.88881 41.09438 1972 ft 135 kts 305°
2026-04-24 10:01 56.89356 41.07968 1970 ft 135 kts 306°
2026-04-24 10:02 56.89843 41.06486 1840 ft 135 kts 306°
2026-04-24 10:02 56.90323 41.05031 1665 ft 130 kts 306°
2026-04-24 10:02 56.90781 41.03648 1495 ft 126 kts 306°
2026-04-24 10:02 56.91235 41.02281 1338 ft 125 kts 306°
2026-04-24 10:03 56.91684 41.00927 1178 ft 125 kts 306°
2026-04-24 10:03 56.92135 40.99564 1009 ft 124 kts 306°
2026-04-24 10:03 56.92579 40.98222 844 ft 124 kts 306°
2026-04-24 10:03 56.93027 40.96869 675 ft 124 kts 307°
2026-04-24 10:04 56.93476 40.95514 509 ft 123 kts 307°
2026-04-24 10:04 56.93916 40.94198 402 ft 116 kts 304°
2026-04-24 10:04 56.94253 40.93202 402 ft 66 kts 301°
2026-04-24 10:04 56.94414 40.92713 403 ft 33 kts 303°
2026-04-24 10:05 56.94514 40.92407 402 ft 19 kts 301°
2026-04-24 10:05 56.94585 40.92201 403 ft 18 kts 301°
2026-04-24 10:05 56.94653 40.92003 404 ft 17 kts 302°
2026-04-24 10:05 56.94716 40.91804 404 ft 17 kts 300°
2026-04-24 10:06 56.94769 40.91660 406 ft 10 kts 316°
2026-04-24 10:06 56.94832 40.91522 407 ft 7 kts 221°
2026-04-24 10:06 56.94790 40.91569 406 ft 9 kts 123°
2026-04-24 10:07 56.94747 40.91694 405 ft 15 kts 122°
2026-04-24 10:07 56.94674 40.91915 403 ft 25 kts 115°
2026-04-24 10:07 56.94565 40.92236 403 ft 34 kts 123°
2026-04-24 10:07 56.94426 40.92641 403 ft 38 kts 121°
2026-04-24 10:08 56.94302 40.93026 402 ft 30 kts 123°
2026-04-24 10:08 56.94201 40.93320 401 ft 22 kts 118°
2026-04-24 10:08 56.94128 40.93549 401 ft 20 kts 116°
2026-04-24 10:08 56.94059 40.93767 401 ft 20 kts 124°
2026-04-24 10:09 56.93993 40.93973 401 ft 16 kts 122°
2026-04-24 10:09 56.93986 40.94110 401 ft 11 kts 34°
2026-04-24 10:09 56.94049 40.94182 401 ft 11 kts 31°
2026-04-24 10:09 56.94083 40.94282 402 ft 10 kts 104°
2026-04-24 10:10 56.94069 40.94385 404 ft 6 kts 100°
2026-04-24 10:10 56.94091 40.94440 404 ft 4 kts 27°
2026-04-24 10:10 56.94117 40.94430 404 ft 5 kts 314°
2026-04-24 10:10 56.94132 40.94391 404 ft 2 kts 302°
2026-04-24 10:11 56.94133 40.94387 404 ft 0 kts 302°